| time (UTC) | temp F | wind direction | speed MPH | gust MPH | rain 1hr in | rain 24hr in | rain mn in | humidity % | barometer mb |
| 20260902013048 | 80 | 274 | 0.0 | 0.0 | 0.00 | 0.00 | 0.00 | 85 | 1013.1 |
| 20260902011535 | 80 | 274 | 0.0 | 0.0 | 0.00 | 0.00 | 0.00 | 86 | 1012.9 |
| 20260902010047 | 80 | 274 | 0.0 | 0.0 | 0.00 | 0.00 | 0.00 | 85 | 1013.1 |
| 20260902004513 | 81 | 274 | 0.0 | 0.0 | 0.00 | 0.00 | 0.00 | 84 | 1013.1 |
| 20260902003047 | 81 | 274 | 0.0 | 0.0 | 0.00 | 0.00 | 0.00 | 83 | 1012.7 |
| 20260902001514 | 81 | 274 | 0.0 | 0.0 | 0.00 | 0.00 | 0.00 | 82 | 1012.3 |
| 20260902000047 | 82 | 274 | 0.0 | 0.0 | 0.00 | 0.00 | 0.00 | 81 | 1012.5 |
| 20260901234517 | 82 | 274 | 0.0 | 0.0 | 0.00 | 0.00 | 0.00 | 80 | 1012.8 |
| 20260901233037 | 83 | 274 | 0.0 | 0.0 | 0.00 | 0.00 | 0.00 | 80 | 1012.7 |
| 20260901231526 | 83 | 274 | 0.0 | 0.0 | 0.00 | 0.00 | 0.00 | 77 | 1012.8 |
| 20260901230105 | 84 | 274 | 0.0 | 0.0 | 0.00 | 0.00 | 0.00 | 75 | 1012.9 |
| 20260901224534 | 85 | 274 | 0.0 | 0.0 | 0.00 | 0.00 | 0.00 | 73 | 1012.8 |
| 20260901223053 | 86 | 274 | 0.0 | 0.0 | 0.00 | 0.00 | 0.00 | 70 | 1012.9 |
| 20260901221529 | 86 | 274 | 0.0 | 0.0 | 0.00 | 0.00 | 0.00 | 69 | 1013.0 |
| 20260901220126 | 86 | 274 | 0.0 | 0.0 | 0.00 | 0.00 | 0.00 | 69 | 1013.1 |
| 20260901220001 | 86 | 274 | 0.0 | 0.0 | 0.00 | 0.00 | 0.00 | 69 | 1013.0 |
| 20260901214530 | 86 | 274 | 0.0 | 0.0 | 0.00 | 0.00 | 0.00 | 67 | 1013.1 |
| 20260901213050 | 87 | 274 | 0.0 | 0.0 | 0.00 | 0.00 | 0.00 | 68 | 1013.1 |
| 20260901211533 | 87 | 274 | 0.0 | 0.0 | 0.00 | 0.00 | 0.00 | 66 | 1013.1 |
| 20260901210049 | 88 | 274 | 0.0 | 0.0 | 0.00 | 0.00 | 0.00 | 65 | 1013.0 |
| 20260901204528 | 89 | 274 | 0.0 | 1.0 | 0.00 | 0.00 | 0.00 | 64 | 1013.1 |
| 20260901203056 | 88 | 274 | 0.0 | 1.0 | 0.00 | 0.00 | 0.00 | 65 | 1013.2 |
| 20260901201543 | 88 | 274 | 0.0 | 3.0 | 0.00 | 0.00 | 0.00 | 68 | 1013.4 |
| 20260901200058 | 88 | 271 | 0.0 | 0.0 | 0.00 | 0.00 | 0.00 | 71 | 1013.6 |
| 20260901194523 | 88 | 271 | 0.0 | 0.0 | 0.00 | 0.00 | 0.00 | 69 | 1013.7 |
| 20260901193005 | 87 | 271 | 0.0 | 0.0 | 0.00 | 0.00 | 0.00 | 75 | 1013.9 |
| 20260901191525 | 86 | 271 | 0.0 | 0.0 | 0.00 | 0.00 | 0.00 | 76 | 1013.9 |
| 20260901190051 | 86 | 271 | 0.0 | 0.0 | 0.00 | 0.00 | 0.00 | 74 | 1013.8 |
| 20260901184558 | 88 | 271 | 0.0 | 0.0 | 0.00 | 0.00 | 0.00 | 72 | 1013.7 |
| 20260901183015 | 88 | 271 | 0.0 | 1.0 | 0.00 | 0.00 | 0.00 | 70 | 1014.1 |
| 20260901181559 | 88 | 271 | 0.0 | 0.0 | 0.00 | 0.00 | 0.00 | 70 | 1014.2 |
| 20260901180019 | 90 | 271 | 0.0 | 1.0 | 0.00 | 0.00 | 0.00 | 68 | 1014.2 |
| 20260901174559 | 91 | 270 | 0.0 | 2.0 | 0.00 | 0.00 | 0.00 | 62 | 1014.3 |
| 20260901173020 | 90 | 272 | 0.0 | 1.0 | 0.00 | 0.00 | 0.00 | 65 | 1014.3 |
| 20260901171544 | 90 | 274 | 0.0 | 2.0 | 0.00 | 0.00 | 0.00 | 65 | 1014.5 |
| 20260901170039 | 90 | 281 | 0.0 | 1.0 | 0.00 | 0.00 | 0.00 | 67 | 1014.5 |
| 20260901164603 | 90 | 267 | 0.0 | 1.0 | 0.00 | 0.00 | 0.00 | 67 | 1014.6 |
| 20260901163041 | 89 | 266 | 0.0 | 2.0 | 0.00 | 0.00 | 0.00 | 68 | 1014.8 |
| 20260901161614 | 87 | 266 | 0.0 | 1.0 | 0.00 | 0.00 | 0.00 | 70 | 1014.9 |
| 20260901161501 | 87 | 266 | 0.0 | 2.0 | 0.00 | 0.00 | 0.00 | 70 | 1015.0 |
| 20260901160042 | 87 | 266 | 0.0 | 2.0 | 0.00 | 0.00 | 0.00 | 69 | 1015.0 |
| 20260901154507 | 86 | 266 | 0.0 | 2.0 | 0.00 | 0.00 | 0.00 | 72 | 1015.1 |
| 20260901153027 | 86 | 265 | 0.0 | 1.0 | 0.00 | 0.00 | 0.00 | 72 | 1015.3 |
| 20260901151505 | 86 | 265 | 0.0 | 1.0 | 0.00 | 0.00 | 0.00 | 74 | 1015.3 |
| 20260901150028 | 86 | 265 | 0.0 | 2.0 | 0.00 | 0.00 | 0.00 | 71 | 1015.5 |
| 20260901144509 | 86 | 265 | 0.0 | 0.0 | 0.00 | 0.00 | 0.00 | 72 | 1015.5 |
| 20260901143027 | 85 | 266 | 0.0 | 0.0 | 0.00 | 0.00 | 0.00 | 72 | 1015.6 |
| 20260901141548 | 85 | 262 | 0.0 | 0.0 | 0.00 | 0.00 | 0.00 | 75 | 1015.6 |
| 20260901140013 | 84 | 262 | 0.0 | 0.0 | 0.00 | 0.00 | 0.00 | 78 | 1015.8 |
| 20260901134503 | 83 | 262 | 0.0 | 0.0 | 0.00 | 0.00 | 0.00 | 80 | 1015.9 |
| 20260901133025 | 82 | 260 | 0.0 | 0.0 | 0.00 | 0.00 | 0.00 | 82 | 1015.8 |
| 20260901131519 | 81 | 230 | 0.0 | 0.0 | 0.00 | 0.00 | 0.00 | 86 | 1015.9 |
| 20260901130041 | 80 | 230 | 0.0 | 0.0 | 0.00 | 0.00 | 0.00 | 87 | 1016.0 |
| 20260901124531 | 79 | 230 | 0.0 | 0.0 | 0.00 | 0.00 | 0.00 | 90 | 1016.0 |
| 20260901123051 | 77 | 230 | 0.0 | 0.0 | 0.00 | 0.00 | 0.00 | 92 | 1016.1 |
| 20260901121521 | 76 | 230 | 0.0 | 0.0 | 0.00 | 0.00 | 0.00 | 93 | 1016.3 |
| 20260901120055 | 75 | 144 | 0.0 | 0.0 | 0.00 | 0.00 | 0.00 | 93 | 1016.2 |
| 20260901114509 | 74 | 144 | 0.0 | 0.0 | 0.00 | 0.00 | 0.00 | 94 | 1016.2 |
| 20260901113035 | 73 | 144 | 0.0 | 0.0 | 0.00 | 0.00 | 0.00 | 94 | 1016.2 |
| 20260901111507 | 73 | 143 | 0.0 | 0.0 | 0.00 | 0.00 | 0.00 | 94 | 1015.7 |
| 20260901110029 | 72 | 143 | 0.0 | 0.0 | 0.00 | 0.00 | 0.00 | 94 | 1015.7 |
| 20260901104513 | 72 | 144 | 0.0 | 0.0 | 0.00 | 0.00 | 0.00 | 94 | 1015.7 |
| 20260901103037 | 72 | 144 | 0.0 | 0.0 | 0.00 | 0.00 | 0.00 | 93 | 1015.7 |
| 20260901101553 | 73 | 143 | 0.0 | 0.0 | 0.00 | 0.00 | 0.00 | 94 | 1015.8 |
| 20260901100043 | 73 | 144 | 0.0 | 0.0 | 0.00 | 0.00 | 0.00 | 94 | 1015.7 |
| 20260901094511 | 73 | 144 | 0.0 | 0.0 | 0.00 | 0.00 | 0.00 | 94 | 1015.6 |
| 20260901093027 | 73 | 143 | 0.0 | 0.0 | 0.00 | 0.00 | 0.00 | 94 | 1015.6 |
| 20260901091509 | 72 | 144 | 0.0 | 0.0 | 0.00 | 0.00 | 0.00 | 94 | 1015.6 |
| 20260901090033 | 73 | 144 | 0.0 | 0.0 | 0.00 | 0.00 | 0.00 | 94 | 1015.7 |
| 20260901084549 | 73 | 144 | 0.0 | 0.0 | 0.00 | 0.00 | 0.00 | 94 | 1015.8 |
| 20260901083035 | 72 | 144 | 0.0 | 0.0 | 0.00 | 0.00 | 0.00 | 94 | 1015.8 |
| 20260901081553 | 72 | 144 | 0.0 | 0.0 | 0.00 | 0.00 | 0.00 | 94 | 1015.7 |
| 20260901080019 | 72 | 144 | 0.0 | 0.0 | 0.00 | 0.00 | 0.00 | 94 | 1015.9 |
| 20260901074537 | 73 | 143 | 0.0 | 0.0 | 0.00 | 0.00 | 0.00 | 94 | 1016.1 |
| 20260901073028 | 72 | 144 | 0.0 | 0.0 | 0.00 | 0.00 | 0.00 | 94 | 1016.0 |
| 20260901071547 | 73 | 144 | 0.0 | 0.0 | 0.00 | 0.00 | 0.00 | 94 | 1016.0 |
| 20260901070035 | 73 | 143 | 0.0 | 0.0 | 0.00 | 0.00 | 0.00 | 93 | 1015.9 |
| 20260901064553 | 73 | 143 | 0.0 | 0.0 | 0.00 | 0.00 | 0.00 | 93 | 1016.1 |
| 20260901063032 | 73 | 143 | 0.0 | 0.0 | 0.00 | 0.00 | 0.00 | 93 | 1016.1 |
| 20260901061503 | 73 | 144 | 0.0 | 0.0 | 0.00 | 0.00 | 0.00 | 93 | 1016.3 |
| 20260901060023 | 73 | 143 | 0.0 | 0.0 | 0.00 | 0.00 | 0.00 | 93 | 1016.5 |
| 20260901054544 | 74 | 143 | 0.0 | 0.0 | 0.00 | 0.00 | 0.00 | 93 | 1016.7 |
| 20260901053024 | 74 | 144 | 0.0 | 0.0 | 0.00 | 0.00 | 0.00 | 93 | 1017.0 |
| 20260901051542 | 74 | 143 | 0.0 | 0.0 | 0.00 | 0.00 | 0.00 | 93 | 1017.1 |
| 20260901050003 | 74 | 143 | 0.0 | 0.0 | 0.00 | 0.00 | 0.00 | 93 | 1017.2 |
| 20260901044527 | 74 | 143 | 0.0 | 0.0 | 0.00 | 0.00 | 0.00 | 93 | 1017.2 |
| 20260901043008 | 74 | 143 | 0.0 | 0.0 | 0.00 | 0.00 | 0.00 | 93 | 1017.0 |
| 20260901041529 | 74 | 144 | 0.0 | 0.0 | 0.00 | 0.00 | 0.00 | 93 | 1017.0 |
| 20260901040049 | 74 | 143 | 0.0 | 0.0 | 0.00 | 0.00 | 0.00 | 93 | 1016.8 |
| 20260901034534 | 74 | 144 | 0.0 | 0.0 | 0.00 | 0.00 | 0.00 | 93 | 1016.8 |
| 20260901033050 | 74 | 143 | 0.0 | 0.0 | 0.00 | 0.00 | 0.00 | 93 | 1016.9 |
| 20260901031517 | 74 | 143 | 0.0 | 0.0 | 0.00 | 0.00 | 0.00 | 92 | 1016.8 |
| 20260901030039 | 74 | 144 | 0.0 | 0.0 | 0.00 | 0.00 | 0.00 | 92 | 1016.8 |
| 20260901024520 | 74 | 144 | 0.0 | 0.0 | 0.00 | 0.00 | 0.00 | 92 | 1016.9 |
| 20260901023043 | 74 | 139 | 0.0 | 0.0 | 0.00 | 0.00 | 0.00 | 92 | 1017.0 |
| 20260901021503 | 75 | 138 | 0.0 | 0.0 | 0.00 | 0.00 | 0.00 | 91 | 1017.3 |
| 20260901020022 | 75 | 139 | 0.0 | 0.0 | 0.00 | 0.00 | 0.00 | 91 | 1017.4 |
| 20260901014557 | 75 | 138 | 0.0 | 0.0 | 0.00 | 0.00 | 0.00 | 91 | 1017.5 |